Powrót do katalogu

CZ-6A DEB

AktywnyPO
NORAD 54454·DEBRIS·🇨🇳 China

Wystrzelony Nov 11, 2022 z Taiyuan Satellite Launch Center

Loading…

Następne Przeloty (najbliższe 24 godziny)

TLE

ŚwieżeSource: Space-Track

Epoka: Sep 14, 2026, 05:10 UTC

1 54454U 22151GE  26257.21550789  .00001820  00000-0  15794-2 0  9991
2 54454  98.8339 169.0221 0233410 330.4169  28.3945 13.75695339191793

Śledź CZ-6A DEB w czasie rzeczywistym z AllMySat

Download on the App Store